Louisville, KY

12:03 AM EDT on September 26, 2017 (GMT -0400)
Louisville International-Standiford

Weather History for KSDF - July, 2012

Change the Weather History Date:

Saturday, July 21, 2012

  Actual Average Record
Temperature  
Mean Temperature 78 °F 79 °F  
Max Temperature 88 °F 89 °F 103 °F (1901)
Min Temperature 67 °F 70 °F 56 °F (1970)
Degree Days  
Heating Degree Days 0 0  
Month to date heating degree days 0 0  
Since 1 June heating degree days 7 5  
Since 1 July heating degree days 0 0  
Cooling Degree Days 13 14  
Month to date cooling degree days 418 294  
Year to date cooling degree days 1125 792  
Since 1 June cooling degree days 770 618  
Growing Degree Days 27 (Base 50)    
Moisture  
Dew Point 63 °F    
Average Humidity 64    
Maximum Humidity 87    
Minimum Humidity 40    
Precipitation  
Precipitation 0.00 in 0.14 in 5.09 in (1973)
Month to date precipitation 2.63 2.80  
Year to date precipitation 26.74 26.46  
Snow  
Snow 0.00 in 0.00 in - ()
Month to date snowfall 0.0 0.0  
Since 1 June snowfall 0.0 0.0  
Since 1 July snowfall 0.0 0.0  
Snow Depth 0.00 in    
Sea Level Pressure  
Sea Level Pressure 30.04 in    
Wind  
Wind Speed 6 mph (NNE)    
Max Wind Speed 14 mph    
Max Gust Speed 22 mph    
Visibility 10 miles    
Events      
T = Trace of Precipitation, MM = Missing Value Source: NWS Daily Summary

Daily Weather History Graph

Daily Weather History Graph

Search for Another Location

Airport or City:

Trip Planner

Search our weather history database for the weather conditions in past years. The results will help you decide how hot, cold, wet, or windy it might be!

Date:

Astronomy

Jul. 21, 2012 Rise Set
Actual Time 6:36 AM EDT 9:01 PM EDT
Civil Twilight 6:06 AM EDT 9:31 PM EDT
Nautical Twilight 5:29 AM EDT 10:08 PM EDT
Astronomical Twilight 4:48 AM EDT 10:49 PM EDT
Moon 9:13 AM EDT (7/21) 10:16 PM EDT (7/21)
Length of Visible Light 15h 24m
Length of Day
14h 24m
Waxing Crescent, 7% of the Moon is Illuminated
Jul 21
Waxing Crescent
Jul 26
First Quarter
Aug 1
Full
Aug 9
Last Quarter
Aug 17
New

Hourly Weather History & Observations

Time (EDT) Temp. Heat Index Dew Point Humidity Pressure Visibility Wind Dir Wind Speed Gust Speed Precip Events Conditions
12:56 AM 73.9 °F - 64.0 °F 71% 30.01 in 10.0 mi NNE 11.5 mph - N/A   Partly Cloudy
1:56 AM 72.0 °F - 63.0 °F 73% 30.01 in 10.0 mi NNE 6.9 mph - N/A   Partly Cloudy
2:56 AM 71.1 °F - 63.0 °F 75% 30.01 in 10.0 mi NNE 6.9 mph - N/A   Clear
3:56 AM 69.1 °F - 62.1 °F 78% 30.01 in 10.0 mi NNE 4.6 mph - N/A   Partly Cloudy
4:56 AM 69.1 °F - 62.1 °F 78% 30.01 in 10.0 mi NNE 4.6 mph - N/A   Clear
5:56 AM 68.0 °F - 64.0 °F 87% 30.03 in 10.0 mi North 6.9 mph - N/A   Clear
6:56 AM 66.9 °F - 63.0 °F 87% 30.04 in 10.0 mi North 6.9 mph - N/A   Clear
7:56 AM 69.1 °F - 63.0 °F 81% 30.05 in 10.0 mi NNE 6.9 mph - N/A   Partly Cloudy
8:56 AM 72.0 °F - 62.1 °F 71% 30.05 in 10.0 mi NE 9.2 mph - N/A   Partly Cloudy
9:56 AM 75.0 °F - 62.1 °F 64% 30.06 in 10.0 mi North 6.9 mph - N/A   Partly Cloudy
10:56 AM 78.1 °F - 63.0 °F 60% 30.06 in 10.0 mi Variable 4.6 mph - N/A   Scattered Clouds
11:56 AM 80.1 °F 81.7 °F 64.0 °F 58% 30.08 in 10.0 mi North 5.8 mph - N/A   Mostly Cloudy
12:56 PM 82.0 °F 83.4 °F 64.0 °F 54% 30.08 in 10.0 mi NNE 8.1 mph - N/A   Scattered Clouds
1:56 PM 82.9 °F 84.0 °F 63.0 °F 51% 30.08 in 10.0 mi NE 4.6 mph - N/A   Scattered Clouds
2:56 PM 84.0 °F 85.4 °F 64.0 °F 51% 30.06 in 10.0 mi East 8.1 mph - N/A   Scattered Clouds
3:56 PM 87.1 °F 87.8 °F 63.0 °F 44% 30.04 in 10.0 mi Calm Calm - N/A   Scattered Clouds
4:56 PM 87.1 °F 87.0 °F 61.0 °F 41% 30.03 in 10.0 mi NE 8.1 mph - N/A   Scattered Clouds
5:56 PM 88.0 °F 88.4 °F 62.1 °F 42% 30.03 in 10.0 mi North 3.5 mph - N/A   Scattered Clouds
6:56 PM 86.0 °F 86.1 °F 61.0 °F 43% 30.02 in 10.0 mi Variable 5.8 mph - N/A   Scattered Clouds
7:56 PM 84.9 °F 85.0 °F 61.0 °F 44% 30.02 in 10.0 mi North 4.6 mph - N/A   Scattered Clouds
8:56 PM 82.0 °F 83.0 °F 62.1 °F 51% 30.03 in 10.0 mi ESE 5.8 mph - N/A   Scattered Clouds
9:56 PM 80.1 °F 81.2 °F 62.1 °F 54% 30.04 in 10.0 mi East 3.5 mph - N/A   Scattered Clouds
10:56 PM 79.0 °F - 63.0 °F 58% 30.05 in 10.0 mi Calm Calm - N/A   Partly Cloudy
11:56 PM 77.0 °F - 64.0 °F 64% 30.06 in 10.0 mi East 3.5 mph - N/A   Clear